SL-14 DEB, 47088

Orbit data source: Space-Track

SL-14 DEB, 47088 is space debris in LEO originally from a launch on Thu, 15 Aug 1991 UTC launched from the Plesetsk Missile And Space Complex (PKMTR). Debris objects in space refer to the collection of defunct objects orbiting the Earth. Examples of debris include non-operational satellites, rocket bodies, and fragments generated from explosions, collisions, or faulty payload assembly.

Loading next visibility...
Identifier
47088, 1991-056DN
Orbit
LEO
Country
Flag of CISCIS
Related business
Manufacturer
Unknown
Mission
Spacecraft
Bus & Motor
Unknown
Mass
Unknown
Launch date (UTC)
1991-08-15 (35 years ago)
Launch vehicle
Unknown
Launch site
Plesetsk Missile And Space Complex (PKMTR)
Object type
Payload
Rocket body
Debris
Shape & HBR
Unknown shape, 1.1 m
Radar Cross Section
Small (<0.1 m²)

Expand to show TLE details & history
Last TLE update: 20 hours ago

TLE from 20 hours ago
0 SL-14 DEB
1 47088U 91056DN  26126.24591924  .00007023  00000-0  11395-1 0  9993
2 47088  82.6157 203.5692 0173598  89.5576 272.5450 13.42152994102040
Epoch: 2026-05-06T05:54Z
TLE epoch observation values (Epoch: 2026-05-06T05:54:07.422Z)
Latitude
-0.00001°
Longitude
-109.0709°
Altitude
1,100.602 km
Speed
7.304 km/s
True Right ascension
13h 34m 16s
True Declination
0° 00' 00"
Sunlit
Object was in full shadow at epoch
Visualization orbit readout
Latitude
Unknown
Longitude
Unknown
Altitude
Unknown
Speed
Unknown
Apparent Right ascension
Unknown
Apparent Declination
Unknown
Sunlit
N/A
Visualization observer readout
Local Sidereal Time
10:07:00
Azimuth
Unknown
Elevation
Unknown
Doppler factor
Unknown
Orbital elements
Apogee altitude
1,228.268 km
Perigee altitude
968.683 km
Semi-major axis
7,476.613 km
Eccentricity
0.01736
Inclination
82.6157°
RAAN
203.5692°
Arg. of periapsis
89.5576°
True anomaly
270.55616°
Mean anomaly
272.545°
Eccentric anomaly
271.55072°
Mean motion
3.35727 °/min
Orbital period
107.23 mins
BSTAR
0.011395
Loading maneuver chart data...
Computing Atmospheric mass density...
Loading historical data...
Loading historical data...
Loading historical data...
Loading historical data...
Loading historical data...
Loading historical data...
Loading historical data...

Documentation

Showing up to 5 results
|